Regional Weather Roundup
Issued by NWS

Home | Current Version | Previous Version | Text Only | Print | Product List | Glossary Off
Versions: 1 2 3 4 5 6 7 8 9 10 11 12 13 14 15 16 17 18 19 20 21 22 23 24 25 26 27 28 29 30 31 32 33 34 35 36 37 38 39 40 41 42 43 44 45 46 47 48 49 50

000
ASUS45 KBOU 221507
RWRCO

WEATHER ROUNDUP FOR COLORADO
NATIONAL WEATHER SERVICE DENVER/BOULDER CO
900 AM MDT MON SEP 22 2014

NOTE: "FAIR" INDICATES FEW OR NO CLOUDS BELOW 12000 FEET WITH NO
SIGNIFICANT WEATHER AND/OR OBSTRUCTIONS TO VISIBILITY.

COZ001>005-013-030-031-221600-
...NORTHWEST COLORADO...

CITY           SKY/WX    TMP DP  RH WIND       PRES   REMARKS
CRAIG          RAIN      53  51  93 SW6       30.32R FOG
HAYDEN         CLOUDY    54  48  82 W20       30.30R
MEEKER         LGT RAIN  53  49  86 SE7       30.33F
MOUNT WERNER   NOT AVBL
STEAMBOAT SPGS PTSUNNY   53  51  90 CALM      30.29S
WALDEN         PTSUNNY   54  46  76 S9        30.36S
$$

COZ006>008-011-221600-
...WEST CENTRAL VALLEYS...

CITY           SKY/WX    TMP DP  RH WIND       PRES   REMARKS
GRAND JUNCTION CLOUDY    64  57  78 CALM      30.23R
MONTROSE       CLOUDY    59  58  96 CALM      30.30R FOG
EAGLE          PTSUNNY   55  55 100 CALM      30.34S
RIFLE          PTSUNNY   59  55  87 NW3       30.26R
DELTA          RAIN      64  59  86 CALM      30.26S
NUCLA          FOG       57  55  94 CALM      30.33R VSB 1/2
$$

COZ017>023-064>068-221600-
...SOUTHWEST COLORADO...

CITY           SKY/WX    TMP DP  RH WIND       PRES   REMARKS
DURANGO        CLOUDY    59  56  89 E3        30.37R
CORTEZ         MOSUNNY   62  58  86 W3        30.32R
PAGOSA SPRINGS RAIN      55  54  98 CALM      30.44R
TELLURIDE      NOT AVBL
WOLF CREEK PAS RAIN      37  37 100 SW29G43   30.62S VSB 1/4
$$

COZ009-010-012-014-032>034-037-058>063-221600-
...CENTRAL COLORADO...

CITY           SKY/WX    TMP DP  RH WIND       PRES   REMARKS
ASPEN          LGT RAIN  53  51  93 S3        30.37S
BUENA VISTA    CLOUDY    51  50  95 CALM      30.40F FOG
COPPER MTN     CLOUDY    45  37  76 S13       30.61R
BERTHOUD PASS  TSTM      36  34  93 W9G17     30.63S
COTTONWOOD PAS FOG       52  48  87 SE5       30.50R VSB 1/4
GUNNISON       CLOUDY    54  50  87 NE5       30.42F
KREMMLING      CLOUDY    54  50  87 CALM      30.36S
LEADVILLE      CLOUDY    48  46  93 CALM      30.48F
MONARCH PASS   FOG       41  39  93 SW24G31   30.76R VSB<1/4
SALIDA         CLOUDY    55  53  94 CALM      30.46R
SUNLIGHT       FOG       46  46 100 CALM      30.53S THUNDER VSB 1/2
WILKERSON PASS NOT AVBL
$$

COZ069>075-221600-
...SAN LUIS VALLEY/SANGRE DE CRISTO MOUNTAINS...

CITY           SKY/WX    TMP DP  RH WIND       PRES   REMARKS
ALAMOSA        CLOUDY    63  49  60 S15       30.39S
LA VETA PASS   PTSUNNY   45  43  93 S13G21    30.51R
SAGUACHE       NOT AVBL
$$

COZ035-036-038>040-221600-
...NORTHERN COLORADO FRONT RANGE...

CITY           SKY/WX    TMP DP  RH WIND       PRES   REMARKS
DENVER INTL AP CLOUDY    62  51  67 W3        30.21R
DMNS CITY PARK   N/A     61  53  74 S2G8      30.24R
AURORA         LGT RAIN  60  52  73 SW13      30.25R
FRONT RANGE AP NOT AVBL
ERIE MUNI ARPT NOT AVBL
BOULDER MUN AP CLOUDY    59  54  82 CALM      30.21R
CENTENNIAL     LGT RAIN  60  53  77 W10       30.26R
BROOMFIELD     PTSUNNY   59  54  82 CALM      30.23R
FORT COLLINS   CLOUDY    55  48  76 E8        30.20S
LONGMONT       CLOUDY    63  51  65 CALM      30.22R
$$

COZ041-046-047-076>085-087-088-221600-
...PIKES PEAK/PALMER DIVIDE AND SOUTHERN FOOTHILLS...

CITY           SKY/WX    TMP DP  RH WIND       PRES   REMARKS
COLO. SPRINGS  CLOUDY    56  47  71 E6        30.31R
A. F. ACADEMY  PTSUNNY   55  46  69 W3        30.32R
ELLICOTT       NOT AVBL
FALCON         CLOUDY    54  48  80 S3        30.34R
FORT CARSON    CLOUDY    57  47  71 N3        30.29R
LIMON          CLOUDY    57  48  72 S14       30.27R
MONUMENT HILL  CLOUDY    54  46  76 S10       30.32R
TRINIDAD       PTSUNNY   68  55  63 VRB3      30.28F
$$

COZ042>045-048>051-090-091-221600-
...NORTHEAST COLORADO...

CITY           SKY/WX    TMP DP  RH WIND       PRES   REMARKS
GREELEY ARPT   CLOUDY    59  45  58 CALM      30.19R
AKRON          LGT RAIN  60  48  64 S17G36    30.21R
BURLINGTON     PTSUNNY   65  44  46 S23G35    30.26S
WRAY           PTSUNNY   64  44  47 S9G18     30.23S
STERLING       LGT RAIN  66  52  59 S13       30.18R
HOLYOKE        DRIZZLE   61  45  55 S10G16    30.22S
FORT MORGAN    CLOUDY    63  46  54 S9        30.20S
$$

COZ086-089-092>099-221600-
...SOUTHEAST COLORADO...

CITY           SKY/WX    TMP DP  RH WIND       PRES   REMARKS
PUEBLO         CLOUDY    61  50  67 CALM      30.23R
LA JUNTA       PTSUNNY   71  57  61 S17       30.22S
LAMAR          MOSUNNY   66  51  58 S21       30.24F
SPRINGFIELD      N/A     64  51  62 S21       30.31S
$$



USA.gov is the U.S. government's official web portal to all federal, state and local government web resources and services.